Regional Weather Roundup
Issued by NWS

Home | Current Version | Previous Version | Text Only | Print | Product List | Glossary Off
Versions: 1 2 3 4 5 6 7 8 9 10 11 12 13 14 15 16 17 18 19 20 21 22 23 24 25 26 27 28 29 30 31 32 33 34 35 36 37 38 39 40 41 42 43 44 45 46 47 48 49 50

019
ASUS43 KDMX 222201
RWRIA

WEATHER ROUNDUP FOR IOWA
NATIONAL WEATHER SERVICE DES MOINES IA
400 PM CST SUN JAN 22 2017

NOTE: "FAIR" INDICATES FEW OR NO CLOUDS BELOW 12,000 FEET WITH NO
SIGNIFICANT WEATHER AND/OR OBSTRUCTIONS TO VISIBILITY.

* - THESE STATIONS ARE NOT NWS STATIONS...THUS NOT UNDER NWS
QUALITY CONTROL.  THEY ALSO DO NOT REPORT WEATHER SUCH
AS PRECIPITATION OR FOG.

IAZ001>003-012>014-020>022-031>034-043>046-222300-
   NORTHWEST IOWA

CITY           SKY/WX    TMP DP  RH WIND       PRES   REMARKS
CARROLL *      CLOUDY    37  37 100 NW13      29.77S WCI  29
CHEROKEE *     CLOUDY    36  34  94 NW9       29.80R WCI  29
DENISON *      CLOUDY    36  34  93 NW9       29.78R WCI  29
LE MARS *      CLOUDY    34  32  93 NW13      29.82S FOG     WCI  25
ORANGE CITY *  CLOUDY    34  32  93 NW12      29.80R FOG     WCI  25
SHELDON *      CLOUDY    32  32 100 NW14G21   29.78R FOG     WCI  22
SIOUX CITY     SUNNY     36  31  82 NW16      29.82R WCI  26
SPENCER          N/A    N/A N/A N/A MISG      29.77R
STORM LAKE *   CLOUDY    36  34  93 NW12G18   29.77R WCI  27
$$

IAZ055>058-069>071-079>083-090>094-222300-
   SOUTHWEST IOWA

CITY           SKY/WX    TMP DP  RH WIND       PRES   REMARKS
ATLANTIC *     CLOUDY    37  36  93 NW14      29.79R WCI  29
AUDUBON *      DRIZZLE   37  34  87 NW9       29.79R WCI  31
CLARINDA *     CLOUDY    37  37 100 N10       29.81R WCI  30
COUNCIL BLFS * CLOUDY    37  36  93 NW12      29.80S WCI  30
CRESTON *      CLOUDY    36  36 100 NW13      29.76R FOG     WCI  27
HARLAN  *      CLOUDY    36  36 100 NW13      29.83R WCI  27
LAMONI         CLOUDY    37  35  92 NW12      29.73R WCI  29
RED OAK *      MIX PCPN  37  36  93 NW13      29.80R WCI  29
SHENANDOAH *   CLOUDY    37  34  87 NW13      29.81S WCI  29
$$

IAZ047>049-059>061-072>074-084-222300-
   CENTRAL IOWA

CITY           SKY/WX    TMP DP  RH WIND       PRES   REMARKS
AMES           CLOUDY    38  37  97 N13       29.74R WCI  30
ANKENY *       CLOUDY    37  36  93 NW13      29.76R FOG     WCI  29
BOONE *        CLOUDY    37  37 100 NW8       29.74R FOG     WCI  31
CHARITON *     CLOUDY    37  36  93 NW13      29.73R FOG     WCI  29
DES MOINES     CLOUDY    38  35  89 N9        29.75R WCI  31
GRINNELL*      CLOUDY    38  36  91 NW10      29.71R WCI  31
KNOXVILLE *    CLOUDY    37  36  93 NW13      29.71R FOG     WCI  29
MARSHALLTOWN   CLOUDY    37  36  96 NW13      29.72R WCI  29
NEWTON *       CLOUDY    37  36  93 NW13      29.72R FOG     WCI  29
PELLA *        CLOUDY    38  36  91 NW12      29.73S FOG     WCI  31
PERRY *        CLOUDY    37  36  95 NW9       29.77R FOG     WCI  30
$$

IAZ004>006-015-016-023>025-035-036-222300-
   NORTH CENTRAL IOWA

CITY           SKY/WX    TMP DP  RH WIND       PRES   REMARKS
ALGONA *       CLOUDY    37  37 100 NW10      29.75R WCI  30
CLARION *      CLOUDY    37  37 100 N8        29.75R WCI  31
ESTHERVILLE    CLOUDY    36  36 100 NW13      29.75R WCI  27
FORT DODGE *   CLOUDY    37  34  87 NW5       29.76R WCI  34
MASON CITY     CLOUDY    35  34  96 NW10      29.74R FOG     WCI  27
FOREST CITY *  CLOUDY    36  36 100 NW6       29.74R FOG     WCI  31
WEBSTER CITY * CLOUDY    37 N/A N/A NW10      29.73R WCI  30
IOWA FALLS *   CLOUDY    38  37  94 NW9       29.74R FOG     WCI  31
$$

IAZ007>011-017>019-026>030-037>042-050>054-066-222300-
   NORTHEAST IOWA

CITY           SKY/WX    TMP DP  RH WIND       PRES   REMARKS
CEDAR RAPIDS   CLOUDY    37  35  92 NW8       29.69R WCI  31
CHARLES CITY * CLOUDY    36  36 100 NW12G18   29.73R FOG     WCI  27
CLINTON *      CLOUDY    42  38  85 N7        29.67S
DECORAH *      CLOUDY    36  36 100 CALM      29.69R FOG
DUBUQUE        CLOUDY    39  35  86 N10       29.68R WCI  32
MONTICELLO *   CLOUDY    41  37  87 NW7       29.68S FOG
OELWEIN *      CLOUDY    36  36 100 NW9       29.71R FOG     WCI  29
WATERLOO       CLOUDY    37  34  89 NW10      29.71R WCI  30
$$

IAZ064-065-067-068-078-222300-
   EAST CENTRAL IOWA

CITY           SKY/WX    TMP DP  RH WIND       PRES   REMARKS
DAVENPORT      CLOUDY    41  38  89 N7        29.67S
IOWA CITY      CLOUDY    37  32  82 NW9       29.71R WCI  30
MUSCATINE *    CLOUDY    39  36  87 NW7       29.69S FOG     WCI  34
QUAD CITIES    CLOUDY    43  36  76 NW9       29.65S
$$

IAZ062-063-075>077-085>089-095>099-222300-
   SOUTHEAST IOWA

CITY           SKY/WX    TMP DP  RH WIND       PRES   REMARKS
BURLINGTON     CLOUDY    37  36  96 NW12      29.66S WCI  29
FAIRFIELD *    CLOUDY    36  32  87 N12G17    29.69R WCI  27
FORT MADISON * CLOUDY    37  37 100 NW12G17   29.68S WCI  30
KEOKUK *       CLOUDY    37 N/A N/A N13       29.67R WCI  29
OSKALOOSA *    CLOUDY    37  35  90 NW10      29.71R WCI  30
CENTERVILLE *  CLOUDY    37  37 100 NW8       29.72R WCI  31
OTTUMWA        CLOUDY    39  34  82 NW14      29.70R WCI  31
WASHINGTON *   CLOUDY    36  34  93 NW9       29.70S WCI  29
$$

ABBREVIATIONS USED IN REMARKS
   TC - TEMPERATURES IN CELSIUS
  WCI - WIND CHILL INDEX
   HX - HEAT INDEX
  VSB - VISIBILITY
$$





USA.gov is the U.S. government's official web portal to all federal, state and local government web resources and services.